H1 CPF 2 NER 2023 11 18 9 322 01 glonass143 H2 2007501 9143 46805 2023 11 18 0 0 0 2023 11 21 23 45 0 900 1 1 0 0 0 1 H9 10 0 60266 0.00000 0 9473168.048 8579454.545 -22063722.694 10 0 60266 900.00000 0 6786458.631 9249959.337 -22772330.548 10 0 60266 1800.00000 0 4098971.875 10133411.836 -23038230.879 10 0 60266 2700.00000 0 1478296.820 11212100.656 -22856311.139 10 0 60266 3600.00000 0 -1012091.753 12456746.318 -22230165.796 10 0 60266 4500.00000 0 -3315240.882 13827645.285 -21172022.062 10 0 60266 5400.00000 0 -5382846.743 15276269.742 -19702498.149 10 0 60266 6300.00000 0 -7177014.284 16747256.177 -17850198.914 10 0 60266 7200.00000 0 -8671577.099 18180699.465 -15651156.859 10 0 60266 8100.00000 0 -9852923.998 19514656.305 -13148129.346 10 0 60266 9000.00000 0 -10720299.292 20687753.030 -10389765.617 10 0 60266 9900.00000 0 -11285565.851 21641788.296 -7429659.856 10 0 60266 10800.00000 0 -11572442.508 22324221.307 -4325308.693 10 0 60266 11700.00000 0 -11615249.370 22690440.997 -1136993.511 10 0 60266 12600.00000 0 -11457215.218 22705720.693 2073390.535 10 0 60266 13500.00000 0 -11148419.519 22346776.009 5243535.858 10 0 60266 14400.00000 0 -10743456.786 21602860.400 8311930.634 10 0 60266 15300.00000 0 -10298922.573 20476352.181 11219050.256 10 0 60266 16200.00000 0 -9870827.683 18982808.199 13908508.932 10 0 60266 17100.00000 0 -9512049.953 17150481.549 16328149.303 10 0 60266 18000.00000 0 -9269931.201 15019323.156 18431049.202 10 0 60266 18900.00000 0 -9184120.577 12639508.374 20176426.597 10 0 60266 19800.00000 0 -9284755.133 10069549.354 21530425.759 10 0 60266 20700.00000 0 -9591054.160 7374070.993 22466770.045 10 0 60266 21600.00000 0 -10110386.546 4621342.008 22967269.229 10 0 60266 22500.00000 0 -10837850.678 1880662.608 23022172.043 10 0 60266 23400.00000 0 -11756385.132 -780283.835 22630357.269 10 0 60266 24300.00000 0 -12837406.273 -3298006.357 21799359.706 10 0 60266 25200.00000 0 -14041947.073 -5615603.374 20545230.159 10 0 60266 26100.00000 0 -15322250.435 -7684882.436 18892231.614 10 0 60266 27000.00000 0 -16623751.282 -9468115.511 16872376.700 10 0 60266 27900.00000 0 -17887365.235 -10939357.428 14524814.511 10 0 60266 28800.00000 0 -19051988.462 -12085273.066 11895077.793 10 0 60266 29700.00000 0 -20057104.099 -12905439.249 9034204.304 10 0 60266 30600.00000 0 -20845385.682 -13412109.172 5997748.778 10 0 60266 31500.00000 0 -21365187.691 -13629449.732 2844704.419 10 0 60266 32400.00000 0 -21572817.643 -13592284.374 -363645.174 10 0 60266 33300.00000 0 -21434493.082 -13344395.068 -3564921.039 10 0 60266 34200.00000 0 -20927899.865 -12936455.787 -6696866.999 10 0 60266 35100.00000 0 -20043284.881 -12423685.651 -9698566.538 10 0 60266 36000.00000 0 -18784036.038 -11863321.834 -12511633.925 10 0 60266 36900.00000 0 -17166724.023 -11312020.047 -15081355.586 10 0 60266 37800.00000 0 -15220603.201 -10823293.424 -17357758.889 10 0 60266 38700.00000 0 -12986591.869 -10445098.864 -19296587.114 10 0 60266 39600.00000 0 -10515774.073 -10217673.504 -20860161.376 10 0 60266 40500.00000 0 -7867485.288 -10171713.126 -22018112.803 10 0 60266 41400.00000 0 -5107061.566 -10326969.690 -22747970.962 10 0 60266 42300.00000 0 -2303345.791 -10691327.287 -23035597.447 10 0 60266 43200.00000 0 473945.445 -11260395.459 -22875456.697 10 0 60266 44100.00000 0 3156885.210 -12017637.015 -22270719.210 10 0 60266 45000.00000 0 5681919.601 -12935024.889 -21233195.559 10 0 60266 45900.00000 0 7992264.470 -13974200.363 -19783102.778 10 0 60266 46800.00000 0 10040016.713 -15088083.906 -17948667.848 10 0 60266 47700.00000 0 11787893.334 -16222870.867 -15765576.045 10 0 60266 48600.00000 0 13210527.089 -17320328.054 -13276274.915 10 0 60266 49500.00000 0 14295266.072 -18320294.589 -10529147.319 10 0 60266 50400.00000 0 15042445.272 -19163281.730 -7577569.660 10 0 60266 51300.00000 0 15465120.311 -19793062.157 -4478873.612 10 0 60266 52200.00000 0 15588276.031 -20159139.602 -1293231.603 10 0 60266 53100.00000 0 15447544.612 -20218994.683 1917512.089 10 0 60266 54000.00000 0 15087488.416 -19940012.179 5091041.733 10 0 60266 54900.00000 0 14559520.976 -19301008.438 8165778.586 10 0 60266 55800.00000 0 13919554.549 -18293294.366 11082073.730 10 0 60266 56700.00000 0 13225474.010 -16921228.974 13783362.190 10 0 60266 57600.00000 0 12534543.888 -15202239.803 16217256.123 10 0 60266 58500.00000 0 11900857.897 -13166308.798 18336556.143 10 0 60266 59400.00000 0 11372938.316 -10854944.411 20100161.696 10 0 60266 60300.00000 0 10991586.031 -8319681.993 21473863.429 10 0 60266 61200.00000 0 10788071.436 -5620173.989 22431002.809 10 0 60266 62100.00000 0 10782742.041 -2821948.298 22952986.811 10 0 60266 63000.00000 0 10984105.206 6073.274 23029648.164 10 0 60266 63900.00000 0 11388424.657 2794194.623 22659444.403 10 0 60266 64800.00000 0 11979848.072 5474595.562 21849491.883 10 0 60266 65700.00000 0 12731060.941 7983903.807 20615433.763 10 0 60266 66600.00000 0 13604440.005 10265582.985 18981143.998 10 0 60266 67500.00000 0 14553658.630 12272038.304 16978272.281 10 0 60266 68400.00000 0 15525677.492 13966353.017 14645637.880 10 0 60266 69300.00000 0 16463037.495 15323583.843 12028483.241 10 0 60266 70200.00000 0 17306358.901 16331561.700 9177601.040 10 0 60266 71100.00000 0 17996941.535 16991164.646 6148351.000 10 0 60266 72000.00000 0 18479356.235 17316051.902 2999585.272 10 0 60266 72900.00000 0 18703917.696 17331870.552 -207496.758 10 0 60266 73800.00000 0 18628933.516 17074968.808 -3410541.733 10 0 60266 74700.00000 0 18222633.387 16590670.640 -6547259.875 10 0 60266 75600.00000 0 17464695.830 15931185.322 -9556642.417 10 0 60266 76500.00000 0 16347306.756 15153240.949 -12380154.483 10 0 60266 77400.00000 0 14875704.004 14315542.746 -14962879.351 10 0 60266 78300.00000 0 13068183.789 13476164.360 -17254591.235 10 0 60266 79200.00000 0 10955567.769 12689983.052 -19210735.239 10 0 60266 80100.00000 0 8580152.262 12006267.655 -20793295.174 10 0 60266 81000.00000 0 5994182.941 11466521.439 -21971532.380 10 0 60266 81900.00000 0 3257918.180 11102671.031 -22722581.413 10 0 60266 82800.00000 0 437361.443 10935677.655 -23031891.376 10 0 60266 83700.00000 0 -2398243.267 10974628.998 -22893504.774 10 0 60266 84600.00000 0 -5179049.119 11216349.571 -22310168.936 10 0 60266 85500.00000 0 -7837268.129 11645545.603 -21293278.252 10 0 60267 0.00000 0 -10309746.571 12235477.867 -19862648.782 10 0 60267 900.00000 0 -12540349.102 12949134.091 -18046128.995 10 0 60267 1800.00000 0 -14482050.031 13740850.444 -15879056.255 10 0 60267 2700.00000 0 -16098650.103 14558314.555 -13403567.098 10 0 60267 3600.00000 0 -17366045.059 15344864.739 -10667776.470 10 0 60267 4500.00000 0 -18272995.611 16041988.553 -7724841.166 10 0 60267 5400.00000 0 -18821367.767 16591915.142 -4631925.833 10 0 60267 6300.00000 0 -19025834.818 16940191.832 -1449091.662 10 0 60267 7200.00000 0 -18913054.819 17038136.067 1761870.404 10 0 60267 8100.00000 0 -18520359.390 16845059.075 4938639.126 10 0 60267 9000.00000 0 -17894010.079 16330167.191 8019571.617 10 0 60267 9900.00000 0 -17087096.585 15474060.433 10944897.537 10 0 60267 10800.00000 0 -16157165.967 14269764.816 13657875.685 10 0 60267 11700.00000 0 -15163683.083 12723254.498 16105890.692 10 0 60267 12600.00000 0 -14165429.263 10853441.180 18241468.830 10 0 60267 13500.00000 0 -13217948.559 8691630.401 20023193.731 10 0 60267 14400.00000 0 -12371148.648 6280466.451 21416504.878 10 0 60267 15300.00000 0 -11667156.778 3672408.854 22394363.973 10 0 60267 16200.00000 0 -11138520.336 927802.590 22937776.912 10 0 60267 17100.00000 0 -10806827.157 -1887379.017 23036161.691 10 0 60267 18000.00000 0 -10681803.181 -4704026.299 22687555.378 10 0 60267 18900.00000 0 -10760925.229 -7452518.069 21898656.146 10 0 60267 19800.00000 0 -11029565.245 -10065371.552 20684699.254 10 0 60267 20700.00000 0 -11461660.249 -12479808.490 19069168.854 10 0 60267 21600.00000 0 -12020880.316 -14640131.750 17083350.454 10 0 60267 22500.00000 0 -12662245.999 -16499814.302 14765731.804 10 0 60267 23400.00000 0 -13334127.619 -18023214.031 12161262.982 10 0 60267 24300.00000 0 -13980542.572 -19186843.197 9320489.205 10 0 60267 25200.00000 0 -14543653.932 -19980139.714 6298572.560 10 0 60267 26100.00000 0 -14966364.760 -20405708.088 3154221.365 10 0 60267 27000.00000 0 -15194898.107 -20479020.135 -51452.107 10 0 60267 27900.00000 0 -15181252.924 -20227588.324 -3256123.091 10 0 60267 28800.00000 0 -14885431.074 -19689646.958 -6397471.232 10 0 60267 29700.00000 0 -14277340.124 -18912397.296 -9414398.561 10 0 60267 30600.00000 0 -13338290.236 -17949891.279 -12248224.080 10 0 60267 31500.00000 0 -12062020.627 -16860643.895 -14843830.868 10 0 60267 32400.00000 0 -10455211.067 -15705075.649 -17150742.772 10 0 60267 33300.00000 0 -8537455.650 -14542893.696 -19124109.268 10 0 60267 34200.00000 0 -6340698.917 -13430522.620 -20725579.058 10 0 60267 35100.00000 0 -3908157.041 -12418693.439 -21924045.457 10 0 60267 36000.00000 0 -1292768.445 -11550292.488 -22696249.284 10 0 60267 36900.00000 0 1444762.100 -10858560.562 -23027227.892 10 0 60267 37800.00000 0 4238244.883 -10365717.703 -22910602.085 10 0 60267 38700.00000 0 7018517.724 -10082070.914 -22348695.778 10 0 60267 39600.00000 0 9716085.481 -10005641.599 -21352486.504 10 0 60267 40500.00000 0 12263777.372 -10122327.688 -19941388.014 10 0 60267 41400.00000 0 14599312.274 -10406592.816 -18142869.386 10 0 60267 42300.00000 0 16667665.924 -10822652.870 -15991918.131 10 0 60267 43200.00000 0 18423142.316 -11326109.265 -13530357.728 10 0 60267 44100.00000 0 19831063.875 -11865959.560 -10806032.817 10 0 60267 45000.00000 0 20869010.850 -12386900.151 -7871877.882 10 0 60267 45900.00000 0 21527559.275 -12831823.467 -4784887.548 10 0 60267 46800.00000 0 21810487.739 -13144403.885 -1605008.557 10 0 60267 47700.00000 0 21734445.478 -13271662.872 1606024.827 10 0 60267 48600.00000 0 21328096.860 -13166404.706 4785889.208 10 0 60267 49500.00000 0 20630779.249 -12789419.646 7872880.806 10 0 60267 50400.00000 0 19690731.526 -12111361.247 10807110.894 10 0 60267 51300.00000 0 18562968.461 -11114218.254 13531664.767 10 0 60267 52200.00000 0 17306890.716 -9792318.584 15993701.879 10 0 60267 53100.00000 0 15983731.151 -8152822.536 18145476.090 10 0 60267 54000.00000 0 14653944.597 -6215683.697 19945256.715 10 0 60267 54900.00000 0 13374650.374 -4013078.165 21358133.124 10 0 60267 55800.00000 0 12197234.379 -1588324.750 22356687.872 10 0 60267 56700.00000 0 11165210.651 1005660.110 22921525.969 10 0 60267 57600.00000 0 10312431.400 3708309.844 23041650.463 10 0 60267 58500.00000 0 9661719.916 6453678.116 22714677.349 10 0 60267 59400.00000 0 9223983.153 9172939.172 21946885.654 10 0 60267 60300.00000 0 8997840.856 11797015.710 20753101.461 10 0 60267 61200.00000 0 8969786.698 14259226.261 19156417.574 10 0 60267 62100.00000 0 9114874.663 16497843.061 17187753.536 10 0 60267 63000.00000 0 9397902.016 18458454.750 14885263.629 10 0 60267 63900.00000 0 9775039.319 20096035.936 12293603.463 10 0 60267 64800.00000 0 10195838.972 21376637.552 9463068.576 10 0 60267 65700.00000 0 10605537.648 22278627.473 6448621.110 10 0 60267 66600.00000 0 10947555.228 22793429.411 3308823.171 10 0 60267 67500.00000 0 11166084.238 22925729.101 104697.505 10 0 60267 68400.00000 0 11208659.584 22693139.134 -3101462.107 10 0 60267 69300.00000 0 11028598.967 22125336.689 -6247307.053 10 0 60267 70200.00000 0 10587209.589 21262710.736 -9271652.351 10 0 60267 71100.00000 0 9855666.562 20154576.163 -12115672.900 10 0 60267 72000.00000 0 8816482.291 18857030.608 -14724053.403 10 0 60267 72900.00000 0 7464503.473 17430544.935 -17046068.957 10 0 60267 73800.00000 0 5807392.373 15937389.441 -19036574.835 10 0 60267 74700.00000 0 3865570.959 14439004.655 -20656885.893 10 0 60267 75600.00000 0 1671629.153 12993427.691 -21875528.528 10 0 60267 76500.00000 0 -730778.957 11652882.434 -22668850.777 10 0 60267 77400.00000 0 -3288505.555 10461634.669 -23021479.033 10 0 60267 78300.00000 0 -5940881.347 9454201.784 -22926612.960 10 0 60267 79200.00000 0 -8622007.989 8653991.505 -22386153.345 10 0 60267 80100.00000 0 -11263275.785 8072425.963 -21410660.812 10 0 60267 81000.00000 0 -13796002.381 7708586.836 -20019146.511 10 0 60267 81900.00000 0 -16154083.216 7549395.399 -18238699.047 10 0 60267 82800.00000 0 -18276543.951 7570318.838 -16103954.978 10 0 60267 83700.00000 0 -20109889.189 7736572.096 -13656423.202 10 0 60267 84600.00000 0 -21610150.272 8004763.682 -10943676.267 10 0 60267 85500.00000 0 -22744547.427 8324915.281 -8018424.359 10 0 60268 0.00000 0 -23492697.559 8642769.189 -4937490.221 10 0 60268 900.00000 0 -23847318.421 8902285.753 -1760703.334 10 0 60268 1800.00000 0 -23814399.617 9048224.341 1450260.815 10 0 60268 2700.00000 0 -23412835.561 9028699.000 4633079.157 10 0 60268 3600.00000 0 -22673535.587 8797599.932 7725989.592 10 0 60268 4500.00000 0 -21638049.843 8316778.358 10668987.668 10 0 60268 5400.00000 0 -20356769.211 7557902.130 13404987.875 10 0 60268 6300.00000 0 -18886775.308 6503903.375 15880927.163 10 0 60268 7200.00000 0 -17289430.970 5149956.658 18048789.540 10 0 60268 8100.00000 0 -15627812.277 3503945.787 19866532.362 10 0 60268 9000.00000 0 -13964089.401 1586398.728 21298896.939 10 0 60268 9900.00000 0 -12356965.503 -570107.788 22318088.368 10 0 60268 10800.00000 0 -10859280.157 -2922050.402 22904312.023 10 0 60268 11700.00000 0 -9515876.771 -5416523.534 23046156.786 10 0 60268 12600.00000 0 -8361822.400 -7993202.412 22740817.899 10 0 60268 13500.00000 0 -7421053.658 -10586624.590 21994155.097 10 0 60268 14400.00000 0 -6705504.716 -13128696.554 20820584.689 10 0 60268 15300.00000 0 -6214753.446 -15551322.465 19242807.119 10 0 60268 16200.00000 0 -5936200.194 -17789046.750 17291374.576 10 0 60268 17100.00000 0 -5845771.486 -19781601.366 15004106.142 10 0 60268 18000.00000 0 -5909119.026 -21476252.023 12425360.948 10 0 60268 18900.00000 0 -6083263.440 -22829845.704 9605182.613 10 0 60268 19800.00000 0 -6318613.351 -23810473.873 6598330.942 10 0 60268 20700.00000 0 -6561274.331 -24398681.558 3463219.314 10 0 60268 21600.00000 0 -6755549.715 -24588171.356 260778.379 10 0 60268 22500.00000 0 -6846526.849 -24385972.568 -2946731.687 10 0 60268 23400.00000 0 -6782638.445 -23812068.176 -6096936.669 10 0 60268 24300.00000 0 -6518089.561 -22898495.364 -9128567.252 10 0 60268 25200.00000 0 -6015046.282 -21687957.591 -11982656.914 10 0 60268 26100.00000 0 -5245492.213 -20232006.944 -14603694.616 10 0 60268 27000.00000 0 -4192673.032 -18588873.743 -16940709.249 10 0 60268 27900.00000 0 -2852066.822 -16821035.117 -18948264.233 10 0 60268 28800.00000 0 -1231838.094 -14992625.266 -20587342.648 10 0 60268 29700.00000 0 647244.742 -13166796.461 -21826105.691 10 0 60268 30600.00000 0 2752426.009 -11403141.665 -22640509.914 10 0 60268 31500.00000 0 5040088.563 -9755286.739 -23014771.588 10 0 60268 32400.00000 0 7457342.456 -8268752.719 -22941669.625 10 0 60268 33300.00000 0 9944010.831 -6979177.025 -22422681.641 10 0 60268 34200.00000 0 12434930.801 -5910967.196 -21467950.908 10 0 60268 35100.00000 0 14862473.931 -5076442.402 -20096085.172 10 0 60268 36000.00000 0 17159181.827 -4475497.455 -18333791.402 10 0 60268 36900.00000 0 19260407.453 -4095802.094 -16215353.702 10 0 60268 37800.00000 0 21106852.504 -3913525.830 -13781964.504 10 0 60268 38700.00000 0 22646895.519 -3894556.586 -11080922.012 10 0 60268 39600.00000 0 23838613.975 -3996160.689 -8164709.483 10 0 60268 40500.00000 0 24651416.423 -4169013.168 -5089974.252 10 0 60268 41400.00000 0 25067216.985 -4359511.820 -1916426.413 10 0 60268 42300.00000 0 25081103.651 -4512276.581 1294321.264 10 0 60268 43200.00000 0 24701473.063 -4572727.962 4479949.473 10 0 60268 44100.00000 0 23949626.777 -4489635.115 7578641.157 10 0 60268 45000.00000 0 22858846.565 -4217525.411 10530279.292 10 0 60268 45900.00000 0 21472988.092 -3718853.396 13277610.419 10 0 60268 46800.00000 0 19844652.259 -2965837.188 15767351.475 10 0 60268 47700.00000 0 18033011.073 -1941884.432 17951218.695 10 0 60268 48600.00000 0 16101379.044 -642547.196 19786859.126 10 0 60268 49500.00000 0 14114631.400 924035.110 21238667.245 10 0 60268 50400.00000 0 12136576.614 2737224.374 22278471.475 10 0 60268 51300.00000 0 10227392.242 4764501.465 22886077.906 10 0 60268 52200.00000 0 8441230.316 6962588.551 23049661.195 10 0 60268 53100.00000 0 6824091.312 9279030.736 22765995.316 10 0 60268 54000.00000 0 5412054.511 11654172.620 22040519.790 10 0 60268 54900.00000 0 4229937.759 14023449.024 20887239.834 10 0 60268 55800.00000 0 3290441.924 16319895.817 19328461.852 10 0 60268 56700.00000 0 2593815.188 18476777.471 17394368.694 10 0 60268 57600.00000 0 2128050.780 20430222.700 15122442.014 10 0 60268 58500.00000 0 1869609.483 22121758.777 12556742.036 10 0 60268 59400.00000 0 1784636.259 23500638.920 9747057.906 10 0 60268 60300.00000 0 1830619.456 24525865.337 6747944.428 10 0 60268 61200.00000 0 1958422.253 25167822.870 3617663.551 10 0 60268 62100.00000 0 2114600.070 25409454.318 417051.103 10 0 60268 63000.00000 0 2243905.279 25246927.541 -2791669.017 10 0 60268 63900.00000 0 2291872.403 24689765.904 -5946099.558 10 0 60268 64800.00000 0 2207373.348 23760436.197 -8984889.275 10 0 60268 65700.00000 0 1945033.346 22493411.239 -11848932.401 10 0 60268 66600.00000 0 1467404.133 20933746.588 -14482524.094 10 0 60268 67500.00000 0 746801.225 19135231.381 -16834448.700 10 0 60268 68400.00000 0 -233273.586 17158191.293 -18858979.198 10 0 60268 69300.00000 0 -1477185.692 15067036.157 -20516768.063 10 0 60268 70200.00000 0 -2976738.036 12927655.378 -21775612.237 10 0 60268 71100.00000 0 -4711277.476 10804770.370 -22611077.509 10 0 60268 72000.00000 0 -6648333.546 8759354.794 -23006970.511 10 0 60268 72900.00000 0 -8744763.650 6846230.131 -22955649.617 10 0 60268 73800.00000 0 -10948357.476 5111936.512 -22458169.161 10 0 60268 74700.00000 0 -13199834.181 3592966.899 -21524254.590 10 0 60268 75600.00000 0 -15435149.447 2314437.303 -20172109.372 10 0 60268 76500.00000 0 -17588016.646 1289247.315 -18428057.580 10 0 60268 77400.00000 0 -19592537.223 517764.661 -16326029.233 10 0 60268 78300.00000 0 -21385830.887 -11954.552 -13906898.369 10 0 60268 79200.00000 0 -22910556.097 -323420.642 -11217686.673 10 0 60268 80100.00000 0 -24117215.769 -450472.970 -8310648.138 10 0 60268 81000.00000 0 -24966152.112 -435603.800 -5242252.527 10 0 60268 81900.00000 0 -25429147.412 -327915.208 -2072087.474 10 0 60268 82800.00000 0 -25490564.059 -180796.241 1138299.275 10 0 60268 83700.00000 0 -25147976.424 -49419.273 4326594.794 10 0 60268 84600.00000 0 -24412268.509 11838.038 7430929.720 10 0 60268 85500.00000 0 -23307193.658 -48064.271 10391077.107 10 0 60269 0.00000 0 -21868415.258 -274428.374 13149617.924 10 0 60269 900.00000 0 -20142068.034 -704663.236 15653052.081 10 0 60269 1800.00000 0 -18182902.259 -1366464.867 17852830.089 10 0 60269 2700.00000 0 -16052085.829 -2276409.664 19706290.696 10 0 60269 3600.00000 0 -13814757.572 -3439020.384 21177483.185 10 0 60269 4500.00000 0 -11537432.703 -4846344.808 22237860.516 10 0 60269 5400.00000 0 -9285368.022 -6478065.733 22866830.243 10 0 60269 6300.00000 0 -7119995.746 -8302138.884 23052153.044 10 0 60269 7200.00000 0 -5096531.949 -10275933.458 22790181.437 10 0 60269 8100.00000 0 -3261858.184 -12347829.114 22085934.100 10 0 60269 9000.00000 0 -1652763.554 -14459204.331 20953004.140 10 0 60269 9900.00000 0 -294619.689 -16546734.523 19413302.566 10 0 60269 10800.00000 0 799456.921 -18544905.324 17496641.229 10 0 60269 11700.00000 0 1628920.822 -20388637.081 15240162.418 10 0 60269 12600.00000 0 2205579.084 -22015911.562 12687625.297 10 0 60269 13500.00000 0 2552848.008 -23370291.312 9888562.187 10 0 60269 14400.00000 0 2704516.749 -24403226.152 6897320.408 10 0 60269 15300.00000 0 2703070.402 -25076049.737 3772007.913 10 0 60269 16200.00000 0 2597643.865 -25361581.830 573363.106 10 0 60269 17100.00000 0 2441693.584 -25245268.286 -2636428.993 10 0 60269 18000.00000 0 2290486.483 -24725810.075 -5794950.678 10 0 60269 18900.00000 0 2198513.330 -23815254.252 -8840771.308 10 0 60269 19800.00000 0 2216937.078 -22538542.531 -11714648.354 10 0 60269 20700.00000 0 2391185.380 -20932536.138 -14360685.547 10 0 60269 21600.00000 0 2758790.274 -19044557.777 -16727424.936 10 0 60269 22500.00000 0 3347567.489 -16930511.941 -18768851.088 10 0 60269 23400.00000 0 4174213.362 -14652662.577 -20445287.626 10 0 60269 24300.00000 0 5243379.448 -12277161.307 -21724168.635 10 0 60269 25200.00000 0 6547264.737 -9871429.711 -22580670.129 10 0 60269 26100.00000 0 8065743.357 -7501505.039 -22998189.664 10 0 60269 27000.00000 0 9767023.126 -5229459.909 -22968665.198 10 0 60269 27900.00000 0 11608807.942 -3111003.111 -22492727.501 10 0 60269 28800.00000 0 13539915.892 -1193360.861 -21579683.537 10 0 60269 29700.00000 0 15502285.810 486474.166 -20247331.493 10 0 60269 30600.00000 0 17433288.813 1903054.222 -18521611.230 10 0 60269 31500.00000 0 19268248.447 3043294.925 -16436097.047 10 0 60269 32400.00000 0 20943064.343 3906768.114 -14031342.640 10 0 60269 33300.00000 0 22396829.841 4505458.470 -11354090.913 10 0 60269 34200.00000 0 23574334.185 4862995.722 -8456364.017 10 0 60269 35100.00000 0 24428344.632 5013396.236 -5394451.290 10 0 60269 36000.00000 0 24921572.986 4999368.360 -2227814.841 10 0 60269 36900.00000 0 25028244.235 4870254.179 982065.789 10 0 60269 37800.00000 0 24735201.643 4679695.550 4172887.258 10 0 60269 38700.00000 0 24042502.099 4483123.793 7282730.992 10 0 60269 39600.00000 0 22963476.893 4335179.705 10251263.039 10 0 60269 40500.00000 0 21524255.482 4287173.315 13020901.902 10 0 60269 41400.00000 0 19762772.207 4384690.976 15537931.787 10 0 60269 42300.00000 0 17727297.467 4665451.003 17753539.956 10 0 60269 43200.00000 0 15474554.514 5157498.512 19624758.453 10 0 60269 44100.00000 0 13067500.060 5877815.770 21115292.601 10 0 60269 45000.00000 0 10572860.696 6831406.977 22196220.751 10 0 60269 45900.00000 0 8058526.937 8010896.549 22846552.391 10 0 60269 46800.00000 0 5590912.439 9396658.660 23053634.304 10 0 60269 47700.00000 0 3232387.209 10957473.693 22813397.198 10 0 60269 48600.00000 0 1038890.482 12651685.416 22130438.137 10 0 60269 49500.00000 0 -942178.526 14428811.859 21017936.910 10 0 60269 50400.00000 0 -2673705.152 16231543.927 19497407.515 10 0 60269 51300.00000 0 -4130167.339 17998049.442 17598288.816 10 0 60269 52200.00000 0 -5298453.390 19664487.319 15357381.452 10 0 60269 53100.00000 0 -6178155.885 21167627.387 12818141.000 10 0 60269 54000.00000 0 -6781330.030 22447466.522 10029840.282 10 0 60269 54900.00000 0 -7131727.089 23449731.424 7046616.358 10 0 60269 55800.00000 0 -7263535.676 24128162.622 3926420.365 10 0 60269 56700.00000 0 -7219684.504 24446483.162 729890.464 10 0 60269 57600.00000 0 -7049778.919 24379968.337 -2480829.976 10 0 60269 58500.00000 0 -6807759.205 23916549.529 -5643305.475 10 0 60269 59400.00000 0 -6549380.601 23057404.765 -8696028.531 10 0 60269 60300.00000 0 -6329622.721 21817010.352 -11579622.188 10 0 60269 61200.00000 0 -6200139.034 20222650.721 -14238000.850 10 0 60269 62100.00000 0 -6206855.425 18313406.661 -16619466.082 10 0 60269 63000.00000 0 -6387820.378 16138664.054 -18677715.577 10 0 60269 63900.00000 0 -6771398.557 13756205.549 -20372745.357 10 0 60269 64800.00000 0 -7374884.835 11229964.996 -21671627.612 10 0 60269 65700.00000 0 -8203597.915 8627538.449 -22549149.278 10 0 60269 66600.00000 0 -9250492.271 6017555.598 -22988299.228 10 0 60269 67500.00000 0 -10496305.257 3467020.996 -22980595.088 10 0 60269 68400.00000 0 -11910233.616 1038735.423 -22526243.787 10 0 60269 69300.00000 0 -13451111.376 -1211095.831 -21634133.153 10 0 60269 70200.00000 0 -15069040.069 -3234969.068 -20321655.037 10 0 60269 71100.00000 0 -16707403.252 -4995816.070 -18614363.621 10 0 60269 72000.00000 0 -18305181.115 -6468294.768 -16545475.660 10 0 60269 72900.00000 0 -19799468.387 -7639584.337 -14155222.360 10 0 60269 73800.00000 0 -21128090.145 -8509653.073 -11490065.456 10 0 60269 74700.00000 0 -22232205.881 -9090989.465 -8601792.701 10 0 60269 75600.00000 0 -23058792.619 -9407809.366 -5546510.342 10 0 60269 76500.00000 0 -23562902.877 -9494774.136 -2383552.243 10 0 60269 77400.00000 0 -23709602.609 -9395275.063 825673.016 10 0 60269 78300.00000 0 -23475507.718 -9159357.598 4018874.437 10 0 60269 79200.00000 0 -22849854.570 -8841373.942 7134086.991 10 0 60269 80100.00000 0 -21835059.484 -8497463.820 10110872.425 10 0 60269 81000.00000 0 -20446743.640 -8182970.346 12891489.147 10 0 60269 81900.00000 0 -18713222.166 -7949900.385 15422008.616 10 0 60269 82800.00000 0 -16674478.523 -7844536.744 17653356.786 10 0 60269 83700.00000 0 -14380666.679 -7905302.981 19542260.894 10 0 60269 84600.00000 0 -11890203.004 -8160970.815 21052083.786 10 0 60269 85500.00000 0 -9267526.744 -8629285.747 22153530.252 99